Location: *
(46.4833°N, 7.6667°E)
Time: 15:12:02
(UTC+00:00)

Daily predictions for brighter satellites

Satellite Brightness Start Highest point End
(mag) Time Altitude Azimuth Time Altitude Azimuth Time Altitude Azimuth
CSL-04 Rocket 3.9 17:32:27 10° SE 17:37:45 51° ENE 17:43:01 10° N
Cosmos 1833 4.2 17:32:27 10° NNW 17:38:14 74° ENE 17:43:57 10° SSE
STARLINK-1034 3.9 17:35:25 10° WSW 17:39:32 68° NNW 17:43:41 10° ENE
STARLINK-1053 4.2 17:37:28 10° SSW 17:41:20 40° SE 17:45:13 10° ENE
ATLAS 3B R/B 4.3 17:37:31 10° NW 17:41:57 18° N 17:46:27 10° NE
Cosmos 44 4.2 17:38:08 10° NW 17:42:25 50° WSW 17:46:50 10° SSE
CZ-2D R/B 3.6 17:38:58 10° SE 17:42:40 44° ENE 17:46:24 10° N
STARLINK-1014 4.4 17:39:49 10° W 17:43:04 34° NNW 17:46:20 10° NE
STARLINK-1068 4.0 17:40:25 10° WSW 17:44:31 64° NNW 17:48:39 10° ENE
STARLINK-80 4.3 17:41:25 10° NW 17:44:59 36° NNE 17:48:32 10° E
CZ-4 R/B 1.4 17:42:04 10° SSE 17:46:14 78° ENE 17:50:22 10° N
STARLINK-1061 4.1 17:42:20 10° SSW 17:46:16 43° SE 17:50:12 10° ENE
Lacrosse 4 Rocket 4.1 17:45:46 10° WNW 17:48:13 15° NW 17:50:41 10° N
Cosmos 1633 Rocket 3.7 17:45:52 10° SSW 17:50:09 61° WNW 17:54:29 10° N
YAOGAN 1 2.5 17:46:08 10° SSE 17:50:25 68° ENE 17:54:45 10° N
NOSS 7 (D) 4.1 17:47:37 10° NNW 17:50:31 61° NE 17:53:45 10° SE
STARLINK-1067 4.0 17:47:16 10° SW 17:51:14 47° SE 17:55:13 10° ENE
Cosmos 2263 4.4 17:46:05 10° SSW 17:51:53 84° WNW 17:57:41 10° NNE
Ariane Rocket 3.8 17:49:06 10° SE 17:53:32 31° ENE 17:58:01 10° N
STARLINK-1060 4.1 17:50:26 10° WSW 17:54:31 57° NNW 17:58:36 10° ENE
STARLINK-1058 3.9 17:52:10 10° SW 17:56:11 51° SE 18:00:06 11° ENE
NOSS 2-3 (C) 4.1 17:51:57 10° SW 17:56:18 69° NW 18:01:31 10° NE
USA 116 4.1 17:53:00 10° NNE 17:57:12 62° ESE 18:01:54 10° S
FREGAT/IRIS 4.5 17:57:40 11° ENE 17:57:40 11° ENE 17:58:38 10° NE
Cosmos 990 Rocket 4.2 17:52:54 10° NNW 17:57:53 47° ENE 18:02:51 10° SE
STARLINK-1029 4.5 17:56:04 10° WNW 17:58:52 27° N 18:01:40 10° NE
STARLINK-1030 4.2 17:55:28 10° W 17:59:32 54° NNW 18:03:37 10° ENE
Cosmos 1943 Rocket 3.4 17:54:35 10° SW 17:59:54 44° NW 18:05:12 10° NNE
CSL-04 Debris 4.2 17:54:28 10° SSE 17:59:56 78° ENE 18:05:26 10° NNW
Cosmos 1933 Rocket 3.5 17:56:45 10° S 18:01:07 70° E 18:05:29 10° NNE
STARLINK-1043 3.8 17:57:06 10° SW 18:01:08 55° SE 18:04:53 12° ENE
Cosmos 2297 Rocket 3.7 17:57:46 10° N 18:01:45 19° NE 18:04:59 12° E
SKYMED 2 4.1 17:57:59 10° N 18:02:18 66° WNW 18:06:36 10° SSW
STARLINK-1020 4.2 18:00:28 10° W 18:04:30 52° NNW 18:08:29 10° NE
STARLINK-1065 3.7 18:01:52 10° SW 18:05:55 59° SE 18:09:29 13° ENE
Cosmos 1340 3.2 18:04:14 10° SSW 18:07:56 62° WNW 18:11:42 10° N
NOAA 11 4.3 18:03:01 10° SSE 18:08:27 82° WSW 18:13:56 10° NNW
Cosmos 1346 Rocket 2.9 18:04:58 10° SSW 18:08:57 80° WNW 18:12:55 10° N
STARLINK-1052 4.3 18:05:29 10° W 18:09:30 49° NNW 18:13:16 12° NE
STARLINK-1063 3.7 18:06:57 10° SW 18:11:03 64° SE 18:14:24 15° ENE
STARLINK-1047 4.4 18:07:48 10° W 18:11:51 48° NNW 18:15:32 12° NE
Cosmos 1464 Rocket 4.1 18:05:43 10° SSE 18:11:53 54° E 18:18:04 10° NNE
Cosmos 1937 Rocket 3.8 18:07:35 10° NNW 18:12:40 47° ENE 18:17:39 10° SE
Genesis I 4.3 18:11:55 10° NNW 18:15:17 27° NE 18:17:06 19° E
STARLINK-1064 3.6 18:11:54 10° SW 18:16:01 69° SE 18:19:12 16° ENE
ADEOS Rocket 3.6 18:08:24 10° NNE 18:16:14 70° ESE 18:23:45 10° S
USA 238 DEB 4.5 18:10:08 10° NNW 18:16:42 38° NE 18:21:53 17° E
USA 238 4.5 18:10:14 10° NNW 18:16:47 38° NE 18:21:56 17° E
Meteor 2-11 Rocket 4.5 18:12:12 10° S 18:18:08 58° E 18:24:05 10° NNE
STARLINK-1033 4.4 18:15:30 10° W 18:19:29 45° NNW 18:22:50 14° NE
Meteor 1-20 Rocket 4.1 18:15:01 10° S 18:20:29 77° E 18:26:05 10° NNE
DMSP B5D1-3 4.5 18:15:41 10° NNE 18:20:51 75° ESE 18:26:00 10° S
STARLINK-1041 3.6 18:16:52 10° SW 18:20:59 75° SSE 18:23:59 18° ENE
Cosmos 2227 Rocket 3.5 18:16:42 10° N 18:21:05 22° NE 18:23:26 18° ENE
Cosmos 1656 Rocket 4.0 18:18:44 10° SSW 18:24:15 71° WNW 18:29:53 10° NNE
Cosmos 2221 Rocket 4.3 18:21:48 10° N 18:25:50 31° ENE 18:28:33 17° SE
STARLINK-1038 3.5 18:21:48 10° SW 18:25:56 80° SSE 18:28:44 20° ENE
H-2A R/B 2.4 18:25:23 10° SE 18:30:31 47° ENE 18:35:45 10° N
STARLINK-1046 3.5 18:26:48 10° WSW 18:30:56 85° SSE 18:33:33 22° ENE
Cosmos 2034 Rocket 4.0 18:28:25 10° SSE 18:34:25 57° E 18:40:25 10° NNE
STARLINK-1039 3.6 18:31:48 10° WSW 18:35:56 89° NW 18:38:22 24° ENE
STARLINK-41 4.5 18:33:45 10° NW 18:36:37 27° N 18:37:41 22° NE
Cosmos 220 Rocket 3.9 18:33:10 10° S 18:37:26 66° ESE 18:41:41 10° NNE
Meteor 1-18 Rocket 4.3 18:33:00 10° NNW 18:38:57 89° W 18:44:45 10° S
COSMOS 2487 4.1 18:36:40 10° NW 18:39:51 34° WSW 18:43:00 10° S
STARLINK-1045 3.6 18:36:46 10° WSW 18:40:54 84° NNW 18:43:08 27° ENE
STARLINK-75 4.4 18:38:06 10° NW 18:41:05 28° N 18:41:58 25° NE
STARLINK-43 3.4 18:41:09 10° WNW 18:44:51 71° SSW 18:46:22 33° SE
HJ-1C 3.8 18:42:20 10° S 18:45:36 63° WSW 18:48:53 10° NNW
STARLINK-1050 3.7 18:41:48 10° WSW 18:45:56 77° NNW 18:47:59 29° NE
Timation 2 Rocket 4.2 18:39:27 10° NNW 18:46:23 84° WSW 18:53:14 10° SSE
Lacrosse 5 rocket 2.6 18:42:34 10° NW 18:46:44 33° NNE 18:48:11 27° ENE
Okean 1 3.5 18:43:02 10° NNW 18:47:02 72° W 18:50:59 10° S
Cosmos 468 Rocket 4.1 18:41:53 10° SSW 18:47:11 83° WNW 18:52:33 10° NNE
Okean 1-7 3.4 18:43:47 10° NNW 18:48:05 65° W 18:52:24 10° S
Cosmos 2219 3.5 18:44:16 10° NNW 18:49:49 46° ENE 18:52:14 30° ESE
STARLINK-1055 3.7 18:46:47 10° WSW 18:50:55 73° NNW 18:52:45 32° NE
Cosmos 405 4.3 18:49:31 10° NNW 18:52:53 42° W 18:56:15 10° SSW
Lacrosse 5 1.8 18:47:51 10° SW 18:52:56 74° SE 18:55:38 28° ENE
MOS 1 4.2 18:47:32 10° SSE 18:53:10 74° ENE 18:58:49 10° NNW
NOSS 2-2 (E) 4.5 18:50:01 10° S 18:51:53 24° SSE 18:51:53 24° SSE
Cosmos 1092 Rocket 4.1 18:47:10 10° N 18:53:22 53° ENE 18:58:47 14° SSE
STARLINK-1022 3.8 18:51:46 10° WSW 18:55:53 68° NNW 18:57:31 35° NE
Meteor 2-4 Rocket 3.8 18:51:30 10° N 18:57:26 69° ENE 19:03:20 10° SSE
Meteor 1-14 Rocket 4.2 18:52:05 10° SSW 18:57:37 81° W 19:03:15 10° N
Cosmos 1634 Rocket 4.4 18:52:27 10° SSE 18:58:14 39° E 19:04:03 10° NNE
USA 234 4.2 18:55:21 19° ENE 18:59:16 36° N 19:05:06 10° WNW
Gbstr 26 Del rocket 3.2 18:56:02 10° WSW 19:00:08 69° NNW 19:02:07 34° NE
STARLINK-1042 3.9 18:56:47 10° WSW 19:00:54 65° NNW 19:02:20 38° NE
Cosmos 1814 Rocket 3.9 18:56:05 10° S 19:01:04 55° ESE 19:06:06 10° NNE
Cosmos 2369 Rocket 4.4 18:57:31 10° W 19:01:58 23° NW 19:06:27 10° N
USA 186 3.0 19:05:54 28° NNW 19:05:54 28° NNW 19:07:26 10° NNW
Cosmos 44 Rocket 4.0 19:00:32 10° NW 19:05:07 50° WSW 19:08:48 16° S
Cosmos 1898 Rocket 4.4 19:00:36 10° NNW 19:05:34 47° WSW 19:10:31 10° S
STARLINK-1056 3.9 19:01:47 10° WSW 19:05:53 61° NNW 19:07:06 41° NE
SJ 16-02 2.5 19:02:33 10° NNW 19:06:43 42° WSW 19:10:51 10° S
Cosmos 841 Rocket 3.3 19:01:59 10° S 19:07:05 70° ESE 19:12:16 10° NNE
NOSS 3-2 (A) 4.1 18:59:56 10° NW 19:07:13 60° NE 19:10:56 34° ESE
STARLINK-48 3.5 19:03:34 10° WNW 19:07:26 61° NNE 19:07:38 60° NE
Cosmos 1763 Rocket 3.8 19:02:21 10° SSW 19:07:33 69° WNW 19:12:52 10° NNE
ARGOS 3.1 19:04:37 13° SSE 19:09:32 83° ENE 19:15:00 10° NNW
Resurs 01 Rocket 3.0 19:11:23 25° NNE 19:11:23 25° NNE 19:13:47 10° N
Cosmos 2298 Rocket 4.0 19:05:26 10° NNW 19:10:45 60° ENE 19:12:02 46° ESE
STARLINK-1054 4.0 19:06:46 10° WSW 19:10:51 58° NNW 19:11:53 44° NNE
NOSS 3-2 (C) 4.3 19:03:54 10° NW 19:10:56 48° NE 19:13:51 35° E
STARLINK-26 3.6 19:09:14 10° NW 19:12:15 54° NNW 19:12:15 54° NNW
STARLINK-61 4.2 19:09:39 10° NW 19:13:22 40° NNE 19:13:22 40° NNE
Cosmos 1869 Rocket 4.3 19:09:41 10° SSW 19:13:59 53° WNW 19:18:16 10° N
Cosmos 2208 Rocket 3.9 19:08:48 10° SSW 19:14:13 86° ESE 19:19:36 10° NNE
ARGOS Delta rocket 3.5 19:13:10 49° SSE 19:14:19 76° ENE 19:18:49 10° N
Meteor 1-11 Rocket 3.8 19:09:31 10° SSE 19:14:52 49° E 19:20:11 10° NNE
SPOT 3 Rocket 3.5 19:13:10 41° SE 19:14:55 67° ENE 19:20:06 10° N
STARLINK-1062 4.1 19:11:47 10° WSW 19:15:51 55° NNW 19:16:39 46° NNE
CENTAUR R/B 3.5 19:12:24 10° NW 19:19:56 47° NE 19:22:39 37° E
STARLINK-1053 4.1 19:16:48 10° W 19:20:51 52° NNW 19:21:26 48° N
STARLINK-80 3.6 19:19:43 10° WNW 19:23:11 68° W 19:23:11 68° W
CZ-2C R/B 3.4 19:18:50 10° S 19:24:38 78° WSW 19:30:19 10° NNW
STARLINK-1061 4.2 19:21:48 10° W 19:25:50 50° NNW 19:26:12 48° N
Cosmos 2150 Rocket 3.9 19:22:04 10° NNW 19:27:31 76° ENE 19:28:23 62° SE
Cosmos 1570 Rocket 4.4 19:23:25 10° SSW 19:28:36 62° WNW 19:33:51 10° NNE
SJ-6B 3.1 19:29:20 60° WSW 19:29:24 60° W 19:33:11 10° NNW
STARLINK-1067 4.3 19:26:49 10° W 19:30:50 48° NNW 19:31:00 48° NNW
Ariane Rocket 4.4 19:27:40 10° SSW 19:32:23 38° W 19:37:09 10° NNW
Cosmos 1125 Rocket 3.9 19:27:30 10° NNW 19:32:01 47° NE 19:32:01 47° NE
Okean 3 3.9 19:28:32 10° NNW 19:32:41 60° W 19:33:29 50° SW
Cosmos 540 Rocket 3.4 19:28:33 10° SSW 19:33:40 81° WNW 19:38:51 10° NNE
ATLAS 3B R/B 3.4 19:28:39 10° NNW 19:34:45 35° NE 19:35:31 34° NE
STARLINK-1058 4.4 19:31:50 10° W 19:35:46 46° NNW 19:35:46 46° NNW
Cosmos 1627 Rocket 4.3 19:32:43 10° N 19:38:57 86° E 19:41:01 45° SSE
Meteor 1-13 Rocket 4.3 19:36:31 10° NNW 19:42:23 76° W 19:44:37 39° S
SL-08 RB Rocket 3.9 19:42:32 63° WSW 19:42:47 64° WSW 19:47:15 10° NNW
APEX 4.5 19:39:38 10° SW 19:44:42 65° WNW 19:51:04 10° NNE
Cosmos 2297 Rocket 2.0 19:40:57 10° NNW 19:46:40 88° ENE 19:46:50 84° SE
CZ-2C R/B 4.0 19:42:51 10° N 19:47:30 69° WNW 19:52:12 10° SSW
Cosmos 2026 Rocket 4.0 19:50:43 10° NNW 19:56:53 75° W 19:58:21 53° SSW
ATLAS 2AS CENTAUR R/B 4.0 19:49:58 10° S 19:53:45 29° S 19:53:45 29° S
Cosmos 2227 Rocket 2.3 20:00:06 10° NNW 20:05:17 70° WNW 20:05:17 70° WNW
Meteor 1-23 Rocket 4.5 20:02:25 10° NNW 20:07:09 63° NNW 20:07:09 63° NNW
USA 238 DEB 3.9 20:01:02 10° NW 20:08:12 71° SW 20:09:21 61° S
USA 238 3.9 20:01:08 10° NW 20:08:18 71° SW 20:09:24 62° S
H-2A R/B 4.0 20:05:34 10° SSW 20:10:08 28° W 20:14:46 10° NW
Cosmos 2082 4.3 20:06:13 10° NNW 20:10:31 51° N 20:10:31 51° N
Lacrosse 5 rocket 3.6 20:21:42 10° NW 20:23:51 27° WNW 20:23:51 27° WNW
Lacrosse 5 3.6 20:31:36 10° W 20:34:52 30° NW 20:34:52 30° NW
USA 234 3.9 20:42:41 49° N 20:42:41 49° N 20:47:53 10° NW
Cosmos 2263 Rocket 4.2 20:39:28 10° NNW 20:41:27 20° N 20:41:27 20° N
Resurs 01 Rocket 4.3 20:48:56 17° NW 20:48:56 17° NW 20:50:14 10° NW
CENTAUR R/B 3.6 21:03:08 10° NW 21:09:51 56° W 21:09:51 56° W
ATLAS 3B R/B 4.0 21:19:12 10° NW 21:22:47 34° NW 21:22:47 34° NW
